Weather History for Sheridan, WY

Change the Weather History Date:

Sunday, January 8, 2012

  Actual Average Record
Temperature  
Mean Temperature 29 °F 23 °F  
Max Temperature 43 °F 36 °F 69 °F (2002)
Min Temperature 14 °F 11 °F -28 °F (1973)
Degree Days  
Heating Degree Days 36 42  
Month to date heating degree days 254 336  
Since 1 July heating degree days 3091 3519  
Cooling Degree Days 0 0  
Month to date cooling degree days 0 0  
Year to date cooling degree days 0 0  
Moisture  
Dew Point 16 °F    
Average Humidity 55    
Maximum Humidity 80    
Minimum Humidity 30    
Precipitation  
Precipitation 0.00 in 0.01 in 0.48 in (1949)
Month to date precipitation 0.00 0.13  
Year to date precipitation 0.00 0.13  
Sea Level Pressure  
Sea Level Pressure 30.22 in    
Wind  
Wind Speed 2 mph (South)    
Max Wind Speed 8 mph    
Max Gust Speed 10 mph    
Visibility 10 miles    
Events      
T = Trace of Precipitation, MM = Missing Value Source: NWS Daily Summary

Daily Weather History Graph

Daily Weather History Graph

Search for Another Location

Airport:

Trip Planner

Search our weather history database for the weather conditions in past years. The results will help you decide how hot, cold, wet, or windy it might be!

Date:

Astronomy

Jan. 08, 2012 Rise Set
Actual Time 7:44 AM MST 4:44 PM MST
Civil Twilight 7:11 AM MST 5:17 PM MST
Nautical Twilight 6:34 AM MST 5:54 PM MST
Astronomical Twilight 5:59 AM MST 6:29 PM MST
Moon 4:31 PM MST (1/8) 7:04 AM MST (1/8)
Length of Visible Light 10h 06m
Length of Day
8h 59m
Full, 100% of the Moon is Illuminated
Jan 8
Full
Jan 9
Full
Jan 16
Last Quarter
Jan 23
New
Jan 30
First Quarter

Hourly Weather History & Observations

Time (MST) Temp. Windchill Dew Point Humidity Pressure Visibility Wind Dir Wind Speed Gust Speed Precip Events Conditions
12:53 AM 17.1 °F - 12.0 °F 81% 30.25 in 10.0 mi Calm Calm - N/A   Clear
1:53 AM 18.0 °F 11.1 °F 12.0 °F 78% 30.23 in 10.0 mi SW 4.6 mph - N/A   Clear
2:53 AM 17.6 °F - 10.4 °F 73% 30.10 in 10.0 mi Calm Calm - N/A   Clear
3:53 AM 18.0 °F - 10.9 °F 74% 30.22 in 10.0 mi Calm Calm - N/A   Clear
4:53 AM 16.0 °F - 10.0 °F 77% 30.24 in 10.0 mi Calm Calm - N/A   Clear
5:53 AM 17.6 °F - 10.4 °F 73% 30.09 in 10.0 mi Calm Calm - N/A   Clear
6:53 AM 15.1 °F - 9.0 °F 77% 30.25 in 10.0 mi Calm Calm - N/A   Clear
7:53 AM 16.0 °F - 10.9 °F 81% 30.28 in 10.0 mi Calm Calm - N/A   Clear
8:53 AM 21.9 °F - 15.1 °F 75% 30.27 in 10.0 mi Calm Calm - N/A   Clear
9:53 AM 27.0 °F - 19.0 °F 72% 30.26 in 10.0 mi Calm Calm - N/A   Clear
10:53 AM 34.0 °F 31.0 °F 19.9 °F 56% 30.24 in 10.0 mi SSW 3.5 mph - N/A   Clear
12:53 PM 42.1 °F 39.2 °F 14.0 °F 32% 30.17 in 10.0 mi ESE 4.6 mph - N/A   Clear
1:53 PM 42.1 °F - 14.0 °F 32% 30.16 in 10.0 mi Calm Calm - N/A   Clear
2:53 PM 42.1 °F 37.7 °F 17.1 °F 37% 30.17 in 10.0 mi SE 6.9 mph - N/A   Clear
3:53 PM 39.0 °F 36.8 °F 19.0 °F 45% 30.19 in 10.0 mi South 3.5 mph - N/A   Clear
4:53 PM 35.1 °F 32.2 °F 19.9 °F 54% 30.21 in 10.0 mi WSW 3.5 mph - N/A   Clear
5:53 PM 30.0 °F 26.5 °F 21.0 °F 69% 30.23 in 10.0 mi SSW 3.5 mph - N/A   Clear
6:53 PM 28.9 °F - 21.0 °F 72% 30.25 in 10.0 mi Calm Calm - N/A   Clear
7:53 PM 28.0 °F - 21.0 °F 75% 30.26 in 10.0 mi Calm Calm - N/A   Clear
8:53 PM 28.9 °F - 21.0 °F 72% 30.25 in 10.0 mi Calm Calm - N/A   Clear
9:53 PM 28.9 °F - 21.0 °F 72% 30.25 in 10.0 mi Calm Calm - N/A   Clear
10:53 PM 28.0 °F 22.8 °F 21.0 °F 75% 30.24 in 10.0 mi South 4.6 mph - N/A   Clear
11:53 PM 28.9 °F - 21.9 °F 75% 30.22 in 10.0 mi Calm Calm - N/A   Clear